STARLINK-35301, 65843

Orbit data source: Space-Track

STARLINK-35301, 65843 is a payload satellite owned by SpaceX/Seattle (US) in LEO that was launched on Mon, 29 Sep 2025 UTC via an FALCON 9 launch vehicle from the Air Force Western Test Range (AFWTR). Payload-class satellites include a variety of spacecraft equipped with specific instruments for various scientific and technological missions. These include communications satellites like Starlink; space stations such as the ISS; scientific satellites like the Hubble; Earth observation satellites from companies like Planet Labs, Umbra, and HawkEye 360; GPS; miniature CubeSats for education and research; and military/defense satellites.

Loading next visibility...
Identifier
65843, 2025-221W
Orbit
LEO
Country
Flag of USUS
Related business
Manufacturer
SpaceX/Seattle
Mission
Operational Commercial Communications
Bus & Motor
STARLINK V2MO, Unknown motor
Mass
575 kg wet, ~530 kg dry
Launch date (UTC)
2025-09-29 (9 months ago)
Launch vehicle
FALCON 9
Launch site
Air Force Western Test Range (AFWTR)
Object type
Payload
Rocket body
Debris
Shape & HBR
Box + 2 Pan, 17.7 m
Radar Cross Section
36.964 m², Large (>1 m²)

Expand to show TLE details & history
Last TLE update: 1 day ago

TLE from 1 day ago
0 STARLINK-35301
1 65843U 25221W   26170.86201019  .00012243  00000-0  37287-3 0  9993
2 65843  53.1611 332.5412 0001105  76.1708 283.9417 15.34400760 40391
Epoch: 2026-06-19T20:41Z
TLE epoch observation values (Epoch: 2026-06-19T20:41:17.680Z)
Latitude
-0.00006°
Longitude
114.13259°
Altitude
463.42 km
Speed
7.636 km/s
True Right ascension
22h 10m 09s
True Declination
0° 00' 00"
Sunlit
Object was in full shadow at epoch
Visualization orbit readout
Latitude
Unknown
Longitude
Unknown
Altitude
Unknown
Speed
Unknown
Apparent Right ascension
Unknown
Apparent Declination
Unknown
Sunlit
N/A
Visualization observer readout
Local Sidereal Time
07:20:17
Azimuth
Unknown
Elevation
Unknown
Doppler factor
Unknown
Orbital elements
Apogee altitude
463.714 km
Perigee altitude
462.202 km
Semi-major axis
6,841.095 km
Eccentricity
0.00011
Inclination
53.1611°
RAAN
332.5412°
Arg. of periapsis
76.1708°
True anomaly
283.92941°
Mean anomaly
283.9417°
Eccentric anomaly
283.93556°
Mean motion
3.83579 °/min
Orbital period
93.85 mins
BSTAR
0.00037287
Loading maneuver chart data...
Computing Atmospheric mass density...
Loading historical data...
Loading historical data...
Loading historical data...
Loading historical data...
Loading historical data...
Loading historical data...
Loading historical data...

Documentation

Showing up to 5 results
|